Wind_Speed
23 23 22 21 21 20 21 21 19 18 17 16 15 14 12 11 9 7 6 6 6 5 4 5 5 5 6 7 7 6 6 6 6 7 8 8 7 7 6 6 6 6 6 5 5 5 5 5 5
22 23 22 22 21 21 21 22 21 19 17 16 16 15 13 11 10 8 7 7 6 5 5 5 5 5 6 6 6 6 7 7 7 7 7 8 7 7 6 6 6 6 5 5 5 5 5 5 5
20 21 22 23 22 22 21 21 21 20 19 17 17 16 14 11 10 9 8 8 6 5 5 5 5 5 5 6 5 6 8 7 7 7 7 7 7 7 6 6 5 5 5 5 5 5 5 5 5
19 20 21 22 22 22 22 22 21 21 20 19 18 17 14 13 11 10 9 8 7 6 6 6 5 5 5 6 6 6 7 7 6 6 6 6 7 7 6 5 5 5 5 5 5 5 5 4 4
17 20 21 21 22 22 22 22 21 21 21 20 19 18 16 14 12 11 10 9 8 7 6 6 6 6 6 6 6 6 7 7 6 6 6 6 6 6 6 5 5 5 5 5 4 4 4 4 4
17 19 20 21 22 22 22 22 21 21 20 20 19 19 17 15 13 11 10 9 8 7 7 7 6 7 6 6 5 5 6 6 6 6 6 6 6 6 6 5 4 4 5 5 4 4 4 3 3
17 17 19 20 22 22 22 22 21 21 20 20 19 19 17 16 14 13 12 10 9 8 7 7 7 7 6 6 6 6 6 6 7 7 6 6 6 6 5 5 4 4 4 4 4 4 4 3 3
14 15 17 19 20 21 21 21 21 21 20 19 19 19 18 16 15 14 13 12 10 9 8 8 7 7 7 6 5 5 5 6 6 6 6 5 5 5 5 4 4 4 3 3 4 4 4 4 3
12 14 16 17 18 19 20 20 20 20 20 20 20 19 18 17 16 15 14 12 12 11 10 9 9 8 7 6 5 4 5 5 5 5 5 5 5 5 5 5 4 4 3 3 4 4 4 4 3
9 11 14 15 16 16 17 18 19 20 19 19 19 19 18 17 16 15 14 13 13 12 11 10 9 8 7 6 5 5 5 5 4 5 4 5 5 5 5 5 5 4 4 4 3 3 4 4 3
7 9 11 12 13 14 15 17 18 19 19 19 19 18 18 17 16 16 15 14 13 13 12 11 10 8 7 7 7 6 5 4 4 4 4 4 4 5 5 5 5 5 5 4 4 3 3 4 4
5 7 9 10 11 12 14 15 17 18 18 18 18 18 17 17 16 16 16 15 14 14 13 12 11 10 8 8 8 7 6 5 5 4 3 3 4 4 4 4 5 5 5 5 4 4 4 4 4
4 5 6 7 9 10 11 13 14 15 17 17 18 17 16 16 16 16 16 16 15 14 13 12 11 11 10 9 8 7 7 6 5 4 3 3 3 4 4 4 5 5 5 5 4 4 4 4 4
4 3 3 4 6 7 9 11 13 14 15 15 16 16 16 16 16 16 16 16 15 14 14 13 12 11 11 10 8 7 7 6 5 4 4 2 2 3 4 4 5 4 4 5 5 5 5 5 5
6 4 2 2 3 4 6 8 9 11 12 13 14 14 15 15 15 15 15 15 15 14 14 13 12 12 11 10 10 8 7 6 5 4 3 2 2 1 2 3 4 4 4 5 5 6 5 6 6
10 7 5 3 1 1 3 5 6 7 9 10 11 12 13 13 14 14 14 14 13 13 13 13 12 11 11 10 10 9 8 6 5 4 3 3 2 1 1 2 3 4 4 5 6 6 6 6 6
13 11 8 7 5 3 2 1 2 4 5 7 8 9 11 12 12 12 13 13 12 12 12 12 12 11 11 10 10 10 8 7 6 5 4 3 2 2 2 2 2 4 4 5 6 6 6 6 6
16 14 11 10 10 8 6 3 1 2 3 4 5 7 8 9 11 11 11 11 11 11 11 11 11 11 11 11 11 10 9 9 8 6 5 4 3 3 2 2 2 3 4 4 5 6 6 6 7
18 17 15 13 13 12 10 8 5 3 3 3 4 5 6 7 9 9 10 9 10 10 10 9 10 10 10 10 11 10 9 9 9 8 6 5 4 4 3 2 1 2 3 4 5 5 6 6 7
21 19 17 16 16 15 14 11 9 7 6 4 4 4 4 6 7 7 8 9 8 8 8 8 8 8 9 9 9 9 9 9 9 8 7 6 5 4 4 1 1 2 2 3 4 5 5 6 7
23 22 20 19 18 18 17 15 12 10 9 7 6 6 5 5 5 6 7 8 8 7 6 6 7 7 7 7 7 8 8 8 8 7 7 6 6 4 4 3 2 2 3 3 4 5 5 6 7
25 23 22 22 22 21 21 19 15 13 11 9 9 8 8 7 6 6 7 8 8 7 6 6 6 6 6 6 6 6 6 7 7 7 7 7 6 5 4 3 3 3 4 4 4 5 5 6 7
26 26 26 25 24 24 22 22 18 16 14 12 10 10 10 8 7 7 8 9 8 8 7 7 7 7 6 6 5 4 5 6 6 6 6 6 6 6 5 5 4 5 5 5 6 6 6 7 7
27 27 28 28 28 27 24 24 20 18 16 15 12 12 12 11 9 9 9 10 9 9 8 8 7 6 7 7 7 5 5 5 6 6 6 6 6 6 6 6 5 6 6 7 7 8 8 8 8
31 30 30 31 31 29 26 27 22 19 19 18 17 15 15 14 13 12 11 11 10 10 9 9 8 7 7 8 8 6 6 6 6 7 7 6 6 6 6 6 6 6 7 8 8 9 8 9 9
33 33 33 33 32 30 30 30 24 21 20 20 19 18 18 17 16 15 15 13 12 12 11 10 10 9 9 9 8 8 7 7 7 8 8 8 6 6 7 7 7 8 8 9 10 10 10 10 11
35 34 34 34 34 34 33 31 28 24 22 21 20 20 19 19 19 17 17 15 14 14 12 12 12 12 11 11 10 8 9 9 8 9 9 9 9 8 8 8 8 9 9 9 10 10 11 12 12
35 35 35 36 36 36 36 34 31 26 24 23 22 21 20 20 20 19 19 18 17 16 14 14 14 14 14 14 13 11 11 10 10 10 10 10 10 10 10 10 10 10 10 10 11 11 11 12 12
35 35 36 36 37 37 38 36 30 28 25 24 23 22 21 21 21 21 20 21 20 18 17 16 16 16 17 17 16 15 14 13 12 12 12 12 12 12 11 11 12 12 12 12 12 12 13 13 14
34 35 36 37 38 38 38 36 31 29 27 25 24 23 22 22 22 22 22 22 20 20 19 19 19 19 19 19 19 18 18 16 15 15 15 15 15 14 14 13 14 14 15 15 15 15 15 15 16
Wind_Direction
63 61 62 63 61 59 56 56 55 53 51 51 51 51 52 56 62 67 72 80 84 83 92 119 135 135 141 147 148 145 147 146 147 143 138 138 137 135 136 135 136 135 130 123 122 122 126 122 116
65 63 62 61 60 59 57 55 53 50 49 48 49 50 51 53 56 66 74 78 81 84 96 103 123 132 145 152 155 154 150 146 141 140 140 142 141 134 131 130 133 134 131 122 121 125 119 116 113
66 65 63 62 61 61 59 57 55 51 49 48 48 48 48 51 55 63 71 74 76 82 94 105 111 121 136 147 149 153 153 147 139 137 138 140 144 141 136 133 137 141 137 134 131 131 126 120 117
69 69 65 62 61 61 60 59 56 52 49 49 49 48 47 49 55 64 68 72 76 80 89 100 106 115 125 131 135 147 148 144 143 143 143 143 146 143 139 138 142 140 139 142 138 137 137 136 130
73 70 66 62 61 60 59 58 56 51 48 48 49 50 49 49 55 62 66 69 76 82 90 95 96 103 113 117 123 127 137 142 146 148 149 151 152 154 152 146 151 151 150 147 147 147 141 140 143
75 72 67 63 62 60 58 56 54 51 48 47 48 51 50 50 54 59 63 67 72 77 85 94 95 99 107 112 121 131 139 146 152 153 154 155 153 153 154 152 156 158 161 163 162 159 153 151 155
74 72 68 64 60 59 57 55 53 51 48 46 47 49 49 50 51 58 62 64 67 73 77 85 95 103 110 119 127 136 137 142 147 153 159 161 162 159 159 162 164 166 163 171 177 176 165 165 164
75 73 69 65 61 57 56 55 53 51 48 47 46 47 48 50 50 55 59 61 65 70 73 79 94 100 105 116 128 134 135 141 148 157 166 169 170 171 169 172 176 178 177 180 186 187 185 176 179
80 76 71 66 62 59 57 54 53 51 48 46 45 46 48 49 50 53 57 59 63 67 71 76 82 93 97 108 121 132 142 148 154 164 175 173 173 178 181 180 183 184 189 192 196 198 195 194 198
80 77 73 68 63 60 57 55 53 50 47 45 45 46 46 47 48 50 53 56 60 64 68 72 76 81 85 95 106 121 141 146 150 153 165 170 179 184 188 188 194 196 200 202 201 205 205 206 206
85 80 76 71 65 63 60 57 53 49 47 45 44 45 45 45 48 50 52 55 58 62 65 68 70 72 75 83 88 97 119 133 139 143 149 166 184 188 189 190 188 194 204 209 211 207 213 213 222
99 87 77 70 66 66 64 59 53 49 46 45 44 44 45 45 47 51 53 56 57 60 63 66 65 66 71 77 82 87 96 109 127 136 138 151 166 176 185 194 194 196 204 214 220 230 233 233 238
133 107 86 73 69 71 67 62 54 48 46 44 42 41 42 43 46 49 53 55 56 57 59 61 61 63 67 72 77 82 90 94 103 125 142 153 171 182 184 196 205 211 218 223 231 238 240 237 249
178 148 101 77 79 75 69 64 56 49 44 43 41 39 40 40 43 46 50 52 54 54 55 58 60 59 60 63 67 74 82 84 88 97 98 117 159 194 206 211 213 218 226 236 242 248 254 257 264
210 193 162 103 97 85 77 69 55 51 43 39 38 36 37 37 39 42 46 49 52 53 54 56 59 59 58 59 62 67 69 72 75 80 83 90 102 142 213 227 233 233 238 245 247 250 258 270 274
220 212 208 209 184 116 83 74 58 51 45 38 35 34 34 33 36 38 41 45 49 51 53 55 58 58 57 57 57 57 59 62 65 68 66 61 60 34 276 240 245 245 246 249 249 253 261 271 274
228 226 222 224 231 232 242 102 56 40 41 38 31 30 32 31 32 35 37 40 44 47 50 52 55 57 56 55 51 49 50 56 58 56 49 47 35 13 349 290 264 259 260 261 256 255 260 267 270
234 232 227 229 235 241 247 241 241 348 9 26 21 18 24 27 27 28 31 34 38 42 45 48 51 53 54 51 49 47 48 49 50 49 48 42 26 13 1 332 271 265 267 266 263 263 264 266 267
235 237 236 235 236 242 246 248 248 280 314 337 351 356 7 17 21 23 23 24 28 35 40 42 45 49 49 48 46 46 47 46 46 47 47 41 30 19 10 349 310 282 276 272 270 271 269 268 269
235 238 240 237 240 244 245 248 252 262 273 273 297 320 332 349 360 10 15 15 14 20 30 34 36 42 43 43 43 43 43 41 39 38 39 33 22 15 19 15 344 335 310 293 287 285 280 279 278
238 240 240 241 242 245 245 245 251 255 256 260 268 282 294 318 339 349 355 356 358 2 10 20 20 22 29 32 34 36 35 31 27 26 26 21 13 7 5 5 346 341 319 304 299 297 291 285 285
237 240 242 242 244 246 247 246 246 249 252 259 268 271 282 293 307 323 332 337 341 345 349 354 358 355 2 13 13 19 21 19 19 20 19 16 11 3 352 342 332 325 314 303 303 308 300 292 293
238 239 242 245 246 247 247 249 245 247 250 257 267 267 272 278 287 302 313 320 322 322 326 329 334 338 335 341 348 347 360 7 9 13 10 6 4 1 352 337 324 320 316 308 297 294 295 293 295
238 238 242 243 245 245 247 250 246 249 252 254 261 264 266 269 278 289 291 298 305 304 308 310 312 328 329 327 326 325 337 346 348 346 347 348 349 349 346 336 326 317 313 312 304 296 296 296 292
237 239 242 243 245 248 249 251 251 250 253 253 255 259 259 263 270 273 273 276 287 292 294 298 302 314 320 322 317 309 314 322 324 325 325 325 323 322 323 323 317 311 308 307 305 300 299 295 291
238 239 243 247 249 250 251 252 252 252 255 255 254 256 257 260 265 269 265 265 277 283 288 295 298 298 302 308 305 301 304 311 312 312 311 309 308 304 308 305 304 299 300 303 299 297 296 296 293
236 239 243 248 250 251 252 254 254 254 256 256 257 259 261 259 262 265 264 264 269 274 282 289 289 287 287 291 299 296 295 296 302 301 297 296 299 299 300 300 299 298 300 303 303 298 297 296 292
238 240 242 245 249 252 254 255 256 258 258 259 260 260 260 259 260 261 263 263 266 268 272 282 285 281 278 280 283 285 283 284 289 295 292 289 291 293 295 294 295 291 295 298 302 299 295 292 293
238 239 242 246 249 253 256 258 258 259 261 261 259 259 259 260 262 263 265 263 264 264 267 275 280 281 276 278 279 280 278 278 283 286 287 285 289 291 289 286 287 287 289 291 295 294 293 293 295
241 242 244 246 250 253 257 259 259 258 260 260 259 260 260 260 260 259 261 261 263 263 266 270 275 279 279 278 276 278 278 276 278 279 282 282 283 284 283 282 284 285 286 288 289 290 291 291 290
Height
5881 5880 5879 5878 5877 5875 5873 5872 5870 5870 5869 5868 5867 5866 5865 5865 5865 5867 5865 5864 5864 5864 5864 5864 5864 5865 5866 5867 5867 5869 5870 5871 5872 5873 5875 5876 5878 5879 5880 5881 5882 5883 5884 5885 5885 5886 5887 5888 5888
5884 5883 5882 5881 5879 5877 5876 5874 5873 5872 5871 5869 5868 5867 5866 5866 5865 5865 5864 5865 5865 5865 5865 5865 5865 5865 5866 5867 5868 5869 5870 5872 5873 5874 5875 5877 5878 5880 5881 5882 5883 5884 5885 5885 5886 5887 5888 5888 5889
5887 5885 5885 5883 5881 5880 5879 5877 5875 5874 5873 5872 5870 5869 5868 5867 5867 5866 5866 5866 5866 5866 5866 5866 5866 5866 5867 5868 5869 5870 5871 5872 5873 5875 5876 5878 5879 5880 5881 5882 5883 5884 5885 5886 5887 5888 5888 5889 5890
5890 5889 5888 5886 5884 5882 5881 5879 5878 5877 5876 5874 5872 5871 5870 5870 5869 5868 5867 5867 5867 5867 5867 5867 5867 5867 5867 5868 5869 5870 5871 5873 5874 5875 5877 5878 5879 5881 5882 5883 5884 5885 5886 5887 5887 5888 5889 5890 5890
5892 5891 5890 5888 5886 5885 5883 5882 5880 5879 5878 5876 5875 5873 5872 5872 5871 5870 5869 5869 5869 5869 5868 5868 5868 5868 5869 5869 5870 5871 5872 5873 5874 5876 5877 5878 5880 5881 5882 5883 5884 5885 5886 5887 5888 5888 5889 5890 5891
5894 5893 5892 5890 5889 5887 5886 5884 5883 5882 5881 5879 5878 5876 5875 5874 5873 5872 5871 5870 5870 5870 5870 5869 5869 5870 5870 5870 5871 5872 5873 5874 5875 5876 5878 5879 5880 5881 5882 5884 5885 5886 5886 5887 5888 5889 5889 5890 5891
5897 5895 5894 5893 5891 5890 5889 5887 5885 5884 5883 5882 5881 5879 5877 5876 5876 5874 5873 5872 5872 5871 5871 5871 5871 5871 5871 5872 5872 5873 5874 5875 5876 5877 5878 5879 5880 5881 5883 5884 5885 5886 5886 5887 5888 5889 5890 5890 5891
5898 5898 5896 5895 5894 5893 5892 5890 5889 5887 5886 5885 5884 5882 5880 5879 5878 5877 5875 5874 5874 5873 5872 5872 5872 5872 5872 5873 5873 5874 5875 5875 5876 5877 5878 5879 5880 5882 5883 5884 5885 5886 5887 5887 5888 5889 5890 5891 5891
5900 5900 5898 5897 5896 5896 5894 5893 5892 5891 5890 5888 5886 5885 5884 5882 5881 5879 5878 5877 5876 5875 5874 5874 5874 5874 5874 5874 5874 5875 5875 5876 5876 5877 5878 5879 5880 5881 5882 5884 5885 5886 5887 5887 5888 5889 5890 5890 5891
5902 5901 5900 5900 5899 5898 5897 5896 5895 5894 5892 5891 5889 5888 5886 5885 5883 5882 5881 5879 5878 5877 5876 5876 5875 5875 5875 5875 5875 5875 5876 5876 5877 5878 5878 5879 5880 5881 5882 5883 5884 5885 5887 5887 5888 5889 5890 5890 5891
5903 5903 5902 5902 5901 5900 5899 5898 5897 5896 5895 5894 5892 5891 5889 5888 5886 5885 5883 5882 5881 5880 5879 5878 5877 5877 5877 5876 5876 5876 5876 5877 5877 5878 5879 5879 5880 5881 5882 5883 5884 5885 5886 5887 5888 5889 5889 5890 5891
5905 5905 5904 5903 5903 5902 5901 5900 5899 5899 5898 5897 5895 5894 5892 5891 5889 5887 5886 5884 5883 5882 5881 5880 5879 5879 5878 5878 5877 5877 5877 5878 5878 5879 5879 5880 5881 5882 5883 5884 5884 5885 5886 5887 5888 5888 5889 5890 5890
5906 5906 5905 5904 5904 5904 5903 5902 5902 5901 5900 5899 5898 5897 5895 5894 5892 5890 5889 5887 5885 5884 5883 5882 5881 5880 5880 5879 5879 5879 5879 5879 5879 5879 5880 5880 5881 5882 5883 5883 5884 5885 5886 5886 5887 5888 5889 5889 5890
5906 5906 5906 5905 5905 5905 5904 5904 5904 5903 5902 5901 5900 5899 5898 5896 5894 5893 5891 5889 5888 5886 5885 5884 5883 5882 5881 5881 5880 5880 5880 5880 5880 5880 5880 5881 5881 5882 5883 5883 5884 5884 5885 5886 5887 5887 5888 5889 5889
5906 5907 5907 5906 5905 5905 5905 5905 5905 5904 5904 5903 5902 5901 5900 5898 5897 5895 5894 5892 5890 5889 5887 5886 5885 5884 5883 5883 5882 5881 5881 5881 5881 5881 5881 5881 5881 5882 5882 5883 5883 5884 5885 5885 5886 5887 5887 5888 5888
5905 5906 5907 5907 5906 5905 5907 5906 5906 5905 5905 5905 5904 5903 5902 5900 5899 5897 5896 5894 5893 5891 5890 5888 5887 5886 5885 5884 5884 5883 5882 5882 5882 5882 5882 5881 5882 5882 5882 5883 5883 5883 5884 5884 5885 5886 5886 5887 5887
5904 5905 5906 5906 5906 5906 5906 5906 5907 5906 5906 5906 5905 5905 5903 5902 5900 5899 5898 5896 5894 5893 5892 5890 5889 5888 5887 5886 5885 5884 5884 5883 5882 5882 5882 5882 5882 5882 5882 5882 5882 5883 5883 5884 5884 5885 5885 5885 5886
5902 5903 5904 5905 5905 5905 5905 5906 5906 5906 5906 5906 5906 5905 5904 5903 5902 5900 5899 5898 5896 5895 5893 5892 5891 5890 5889 5888 5887 5886 5885 5884 5883 5883 5883 5882 5882 5882 5882 5882 5882 5882 5883 5883 5884 5884 5884 5884 5885
5899 5901 5902 5904 5903 5904 5904 5905 5905 5906 5906 5906 5906 5905 5905 5904 5903 5901 5900 5899 5898 5897 5895 5894 5892 5891 5890 5889 5888 5887 5886 5885 5884 5884 5883 5883 5882 5882 5881 5882 5882 5882 5882 5883 5883 5883 5883 5883 5883
5896 5897 5899 5901 5902 5901 5902 5903 5904 5905 5905 5905 5905 5905 5904 5904 5903 5902 5901 5900 5899 5898 5896 5895 5893 5892 5891 5890 5890 5888 5887 5886 5885 5885 5884 5883 5883 5882 5882 5882 5882 5881 5882 5882 5882 5882 5882 5882 5882
5893 5895 5896 5898 5899 5899 5900 5901 5902 5903 5903 5904 5904 5904 5903 5903 5903 5902 5901 5900 5899 5898 5897 5896 5894 5893 5892 5891 5891 5889 5888 5887 5886 5885 5885 5884 5883 5882 5882 5882 5881 5881 5881 5881 5881 5881 5880 5880 5880
5889 5891 5893 5894 5895 5895 5897 5897 5900 5900 5901 5902 5902 5902 5902 5902 5902 5901 5900 5899 5898 5898 5897 5896 5895 5893 5892 5892 5891 5890 5889 5888 5887 5886 5885 5884 5883 5883 5882 5882 5881 5881 5881 5880 5880 5880 5879 5879 5879
5885 5887 5888 5889 5890 5891 5892 5893 5897 5897 5898 5899 5900 5900 5900 5900 5900 5900 5899 5899 5898 5897 5896 5895 5894 5893 5892 5891 5890 5890 5889 5888 5887 5886 5884 5884 5883 5883 5882 5881 5881 5880 5880 5879 5879 5878 5878 5877 5877
5880 5882 5883 5884 5885 5886 5889 5889 5892 5894 5895 5896 5897 5898 5898 5898 5898 5898 5897 5897 5896 5895 5894 5894 5893 5892 5891 5890 5890 5889 5889 5888 5887 5885 5884 5883 5882 5882 5881 5881 5880 5880 5879 5878 5877 5877 5876 5876 5875
5874 5876 5877 5878 5879 5881 5884 5884 5887 5890 5891 5892 5894 5894 5895 5895 5895 5895 5894 5893 5893 5893 5892 5891 5891 5890 5890 5889 5888 5888 5888 5887 5886 5885 5883 5882 5881 5880 5880 5879 5879 5878 5877 5876 5875 5875 5874 5874 5873
5868 5870 5872 5873 5874 5876 5878 5878 5883 5885 5886 5888 5889 5890 5890 5891 5891 5891 5890 5890 5890 5890 5890 5889 5889 5889 5888 5887 5886 5886 5886 5885 5884 5883 5882 5880 5879 5878 5878 5878 5877 5876 5875 5874 5874 5873 5872 5871 5871
5861 5863 5866 5867 5868 5869 5870 5873 5877 5879 5881 5883 5884 5885 5886 5886 5887 5887 5887 5887 5887 5887 5887 5887 5887 5887 5886 5886 5885 5884 5884 5883 5882 5881 5880 5879 5877 5877 5876 5875 5874 5874 5873 5872 5871 5870 5870 5869 5868
5854 5857 5859 5860 5860 5862 5864 5867 5871 5874 5876 5877 5879 5880 5881 5882 5882 5882 5883 5883 5883 5883 5883 5884 5883 5883 5883 5882 5882 5881 5881 5880 5880 5879 5877 5876 5876 5875 5874 5873 5872 5872 5871 5870 5869 5868 5867 5866 5865
5847 5849 5851 5853 5854 5855 5856 5862 5866 5869 5870 5872 5873 5874 5875 5876 5877 5877 5878 5878 5879 5879 5879 5879 5879 5878 5878 5878 5878 5878 5877 5877 5876 5875 5874 5873 5872 5871 5871 5870 5870 5869 5868 5867 5866 5865 5864 5862 5861
5839 5841 5844 5846 5847 5848 5850 5856 5859 5862 5864 5865 5867 5868 5869 5870 5871 5872 5873 5873 5874 5874 5874 5874 5874 5874 5873 5873 5873 5873 5872 5872 5872 5871 5871 5870 5869 5868 5867 5867 5866 5865 5864 5864 5862 5861 5860 5858 5857